Showing default

LEMUR 2 KREMPEL-BRO2, 63353

Orbit data source: Space-Track

LEMUR 2 KREMPEL-BRO2, 63353 is a payload satellite owned by OroraTech (US) in SSO that was launched on Wed, 26 Mar 2025 UTC via an ELECTRON launch vehicle from the Rocket Lab Launch Complex (RLLC). Payload-class satellites include a variety of spacecraft equipped with specific instruments for various scientific and technological missions. These include communications satellites like Starlink; space stations such as the ISS; scientific satellites like the Hubble; Earth observation satellites from companies like Planet Labs, Umbra, and HawkEye 360; GPS; miniature CubeSats for education and research; and military/defense satellites.

Loading next visibility...
Identifier
63353, 2025-061C
Orbit
SSO
Country
Flag of USUS
Related business
Manufacturer
Spire/Glasgow
Mission
Operational Commercial Imaging
Bus & Motor
CUBESAT 6U, Unknown motor
Mass
~15 kg wet, ~15 kg dry
Launch date (UTC)
2025-03-26 (7 months ago)
Launch vehicle
ELECTRON
Launch site
Rocket Lab Launch Complex (RLLC)
Object type
Payload
Rocket body
Debris
Shape & HBR
Box + 2 Pan, 14.5 m
Radar Cross Section
0.065 m², Medium (>0.1 m² and < 1m²)

Expand to show TLE details & history
Last TLE update: 22 hours ago

TLE from 22 hours ago
0 LEMUR 2 KREMPEL-BRO2
1 63353U 25061C   25304.65100301  .00008364  00000-0  49382-3 0  9994
2 63353  97.5443 277.7160 0019213 330.5480  29.4666 15.11618964 33059
Epoch: 2025-10-31T15:37Z
TLE epoch observation values (Epoch: 2025-10-31T15:37:26.660Z)
Latitude
-0.00001°
Longitude
3.16254°
Altitude
522.783 km
Speed
7.608 km/s
True Right ascension
18h 30m 51s
True Declination
0° 00' 00"
Sunlit
Object was in daylight at epoch
Visualization orbit readout
Latitude
Unknown
Longitude
Unknown
Altitude
Unknown
Speed
Unknown
Apparent Right ascension
Unknown
Apparent Declination
Unknown
Sunlit
N/A
Visualization observer readout
Local Sidereal Time
09:06:31
Azimuth
Unknown
Elevation
Unknown
Doppler factor
Unknown
Orbital elements
Apogee altitude
541.514 km
Perigee altitude
514.976 km
Semi-major axis
6,906.382 km
Eccentricity
0.00192
Inclination
97.5443°
RAAN
277.716°
Arg. of periapsis
330.548°
True anomaly
29.57513°
Mean anomaly
29.4666°
Eccentric anomaly
29.52084°
Mean motion
3.78153 °/min
Orbital period
95.2 mins
BSTAR
0.00049382
Loading maneuver chart data...
Computing Atmospheric mass density...
Loading historical data...
Loading historical data...
Loading historical data...
Loading historical data...
Loading historical data...
Loading historical data...
Loading historical data...

Documentation

Showing up to 5 results
|